MSC Sinfonia — H8XH — position and weather

sailwx.info

Track history (hours):
 
Tides and Currents Weather Stations Pressure Air Temp Water Temp Dewpoint Dewpoint Depression Visibility Wind Speed Wind Dir Waves Ship Positions

MSC Sinfonia

Last reported at 2014-Nov-26 03:27 UTC. Time now 2014-Nov-26 04:14 UTC.
Position N 41°09' E 002°06'.

Length 251 m; draft 6.8 m.

Type: Passenger vessel. MMSI: 356715971.

Date/timePositionNaut miles runAvg speedWind from/ knotsBaromVisibWave heightAir tempDewpointWater temp
2014-Nov-26 03:27N 41°09' E 002°06'1212.3
2014-Nov-26 02:31N 40°58' E 001°59'1313.5
2014-Nov-26 01:33N 40°47' E 001°51'1413.6
2014-Nov-26 00:33N 40°35' E 001°43'1313.4
2014-Nov-25 23:33N 40°23' E 001°35'1313.4
2014-Nov-25 22:33N 40°11' E 001°27'1313.4
2014-Nov-25 21:33N 39°59' E 001°19'1413.4
2014-Nov-25 20:31N 39°46' E 001°11'15714.3
2014-Nov-25 09:31N 37°31' W 000°33'1414.2
2014-Nov-25 08:33N 37°22' W 000°45'23215.5
2014-Nov-24 17:33N 35°59' W 005°16'61112.5
2014-Nov-22 16:33N 32°39' W 016°55'0 0.0
2014-Nov-22 15:34N 32°39' W 016°55'0 0.0
2014-Nov-22 14:33N 32°39' W 016°55'0 0.0
2014-Nov-22 13:32N 32°39' W 016°55'0 0.0
2014-Nov-22 12:33N 32°39' W 016°55'0 0.0
2014-Nov-22 11:33N 32°39' W 016°55'2 1.8
2014-Nov-22 10:34N 32°37' W 016°54'1919.2
2014-Nov-22 09:33N 32°18' W 016°49'  
2014-Nov-18 21:33N 36°00' W 005°22'23611.2
2014-Nov-18 00:33N 37°25' W 000°47'2120.6
2014-Nov-17 23:33N 37°38' W 000°28'15919.9
2014-Nov-17 15:32N 39°35' E 001°51'1919.1
2014-Nov-17 14:33N 39°47' E 002°09'1919.0
2014-Nov-17 13:33N 39°60' E 002°28'1918.6
2014-Nov-17 12:33N 40°12' E 002°46'1918.8
2014-Nov-17 11:33N 40°25' E 003°05'5918.8
2014-Nov-17 08:24N 41°05' E 004°02'2318.8
2014-Nov-17 07:12N 41°20' E 004°24'10719.0
2014-Nov-17 01:33N 42°32' E 006°11'2419.5
2014-Nov-17 00:20N 42°48' E 006°35'1620.4
2014-Nov-16 23:33N 42°58' E 006°51'2120.2
2014-Nov-16 22:31N 43°12' E 007°13'8119.7
2014-Nov-16 18:26N 44°06' E 008°36'1719.9
2014-Nov-16 17:33N 44°18' E 008°53'7 5.7
2014-Nov-16 16:23N 44°25' E 008°55'0 0.0
2014-Nov-16 14:17N 44°25' E 008°55'0 0.0
2014-Nov-16 13:29N 44°25' E 008°55'0 0.0
2014-Nov-16 12:17N 44°25' E 008°55'0 0.0
2014-Nov-16 11:17N 44°25' E 008°55'0 0.0
2014-Nov-16 10:11N 44°25' E 008°55'0 0.0
2014-Nov-16 09:29N 44°25' E 008°55'0 0.0
2014-Nov-16 08:23N 44°25' E 008°55'1 0.8
2014-Nov-16 07:33N 44°24' E 008°55'9 9.1
2014-Nov-16 06:33N 44°15' E 008°52'1816.9
2014-Nov-16 05:30N 44°03' E 008°34'  
Track history (hours):
 
Tides and Currents Weather Stations Pressure Air Temp Water Temp Dewpoint Dewpoint Depression Visibility Wind Speed Wind Dir Waves Ship Positions

MSC Sinfonia

Last reported at 2014-Nov-26 03:27 UTC. Time now 2014-Nov-26 04:14 UTC.
Position N 41°09' E 002°06'.

Length 251 m; draft 6.8 m.

Type: Passenger vessel. MMSI: 356715971.

Date/timePositionNaut miles runAvg speedWind from/ knotsBaromVisibWave heightAir tempDewpointWater temp
2014-Nov-26 03:27N 41°09' E 002°06'1212.3
2014-Nov-26 02:31N 40°58' E 001°59'1313.5
2014-Nov-26 01:33N 40°47' E 001°51'1413.6
2014-Nov-26 00:33N 40°35' E 001°43'1313.4
2014-Nov-25 23:33N 40°23' E 001°35'1313.4
2014-Nov-25 22:33N 40°11' E 001°27'1313.4
2014-Nov-25 21:33N 39°59' E 001°19'1413.4
2014-Nov-25 20:31N 39°46' E 001°11'15714.3
2014-Nov-25 09:31N 37°31' W 000°33'1414.2
2014-Nov-25 08:33N 37°22' W 000°45'23215.5
2014-Nov-24 17:33N 35°59' W 005°16'61112.5
2014-Nov-22 16:33N 32°39' W 016°55'0 0.0
2014-Nov-22 15:34N 32°39' W 016°55'0 0.0
2014-Nov-22 14:33N 32°39' W 016°55'0 0.0
2014-Nov-22 13:32N 32°39' W 016°55'0 0.0
2014-Nov-22 12:33N 32°39' W 016°55'0 0.0
2014-Nov-22 11:33N 32°39' W 016°55'2 1.8
2014-Nov-22 10:34N 32°37' W 016°54'1919.2
2014-Nov-22 09:33N 32°18' W 016°49'  
2014-Nov-18 21:33N 36°00' W 005°22'23611.2
2014-Nov-18 00:33N 37°25' W 000°47'2120.6
2014-Nov-17 23:33N 37°38' W 000°28'15919.9
2014-Nov-17 15:32N 39°35' E 001°51'1919.1
2014-Nov-17 14:33N 39°47' E 002°09'1919.0
2014-Nov-17 13:33N 39°60' E 002°28'1918.6
2014-Nov-17 12:33N 40°12' E 002°46'1918.8
2014-Nov-17 11:33N 40°25' E 003°05'5918.8
2014-Nov-17 08:24N 41°05' E 004°02'2318.8
2014-Nov-17 07:12N 41°20' E 004°24'10719.0
2014-Nov-17 01:33N 42°32' E 006°11'2419.5
2014-Nov-17 00:20N 42°48' E 006°35'1620.4
2014-Nov-16 23:33N 42°58' E 006°51'2120.2
2014-Nov-16 22:31N 43°12' E 007°13'8119.7
2014-Nov-16 18:26N 44°06' E 008°36'1719.9
2014-Nov-16 17:33N 44°18' E 008°53'7 5.7
2014-Nov-16 16:23N 44°25' E 008°55'0 0.0
2014-Nov-16 14:17N 44°25' E 008°55'0 0.0
2014-Nov-16 13:29N 44°25' E 008°55'0 0.0
2014-Nov-16 12:17N 44°25' E 008°55'0 0.0
2014-Nov-16 11:17N 44°25' E 008°55'0 0.0
2014-Nov-16 10:11N 44°25' E 008°55'0 0.0
2014-Nov-16 09:29N 44°25' E 008°55'0 0.0
2014-Nov-16 08:23N 44°25' E 008°55'1 0.8
2014-Nov-16 07:33N 44°24' E 008°55'9 9.1
2014-Nov-16 06:33N 44°15' E 008°52'1816.9
2014-Nov-16 05:30N 44°03' E 008°34'  

Dump ship's entire track history